Regional Weather Roundup
Issued by NWS

Current Version |  Previous Version |  Text Only |  Print | Product List |  Glossary On
Versions: 1 2 3 4 5 6 7 8 9 10 11 12 13 14 15 16 17 18 19 20 21 22 23 24 25 26 27 28
487
ASUS44 KBMX 180010
RWRAL

ALABAMA REGIONAL WEATHER ROUNDUP
NATIONAL WEATHER SERVICE BIRMINGHAM AL
700 PM CDT FRI MAY 17 2024

NOTE: "FAIR" INDICATES FEW OR NO CLOUDS BELOW 12,000 FEET
WITH NO SIGNIFICANT WEATHER AND/OR OBSTRUCTIONS TO VISIBILITY.

THE REMARK "TC" DENOTES TEMPERATURE IN DEGREES CELSIUS.

ALZ001>011-014-016>018-020-180100-
NORTH ALABAMA

CITY           SKY/WX    TMP DP  RH WIND       PRES   REMARKS
MUSCLE SHOALS  CLOUDY    74  67  78 NW3       29.78S TC  23
6HR MIN TEMP:  70; 6HR MAX TEMP:  75;

HUNTSVILLE     CLOUDY    72  67  84 CALM      29.80S TC  22
6HR MIN TEMP:  70; 6HR MAX TEMP:  72; 6HR PCP: TRACE;

DECATUR        CLOUDY    73  67  81 S6        29.80R TC  23
6HR MIN TEMP:  70; 6HR MAX TEMP:  74; 6HR PCP: TRACE;

HALEYVILLE     CLOUDY    72  72 100 S6        29.83R TC  22
6HR MIN TEMP:  67; 6HR MAX TEMP:  72; 6HR PCP: TRACE;

GADSDEN        CLOUDY    70  70 100 CALM      29.83R TC  21
6HR MIN TEMP:  69; 6HR MAX TEMP:  71;

$$

ALZ012-013-022-023-030>036-040>044-180100-
WEST CENTRAL ALABAMA

CITY           SKY/WX    TMP DP  RH WIND       PRES   REMARKS
TUSCALOOSA     CLOUDY    73  69  87 SW3       29.80S TC  23
6HR MIN TEMP:  70; 6HR MAX TEMP:  74;

DEMOPOLIS      CLOUDY    72  71  98 CALM      29.79F TC  22
6HR MIN TEMP:  69; 6HR MAX TEMP:  73;

$$

ALZ015-024>026-033>036-041>044-180100-
CENTRAL ALABAMA

CITY           SKY/WX    TMP DP  RH WIND       PRES   REMARKS
BIRMINGHAM     CLOUDY    73  65  75 SW8       29.85R TC  23
6HR MIN TEMP:  71; 6HR MAX TEMP:  74;

MONTGOMERY     CLOUDY    71  68  90 SE5       29.83R TC  22
6HR MIN TEMP:  68; 6HR MAX TEMP:  72; 6HR PCP:  0.64;

SHELBY CO ARPT CLOUDY    72  68  87 S3        29.82R TC  22
6HR MIN TEMP:  70; 6HR MAX TEMP:  75;

MAXWELL AFB    CLOUDY    71  68  90 E3        29.80F TC  22
6HR MIN TEMP:  68; 6HR MAX TEMP:  73; 6HR PCP:  0.43;

GREENVILLE     CLOUDY    67  67 100 VRB5      29.83R TC  19
6HR MIN TEMP:  64; 6HR MAX TEMP:  68; 6HR PCP:  1.43;

SELMA          MOCLDY    72  72 100 SE5       29.83R TC  22
PRATTVILLE     CLOUDY    69  69  99 CALM      29.83S TC  21
6HR MIN TEMP:  67; 6HR MAX TEMP:  70; 6HR PCP:  0.23;

BESSEMER       CLOUDY    70  69  97 VRB5      29.83S TC  21
6HR MIN TEMP:  69; 6HR MAX TEMP:  73;

TALLADEGA      CLOUDY    72  68  88 S3        29.82R TC  22
6HR MIN TEMP:  69; 6HR MAX TEMP:  75;

PELL CITY      CLOUDY    70  70 100 S5        29.84R FOG     TC  21
SYLACAUGA      CLOUDY    69  66  88 S3        29.85R TC  21
6HR MIN TEMP:  69; 6HR MAX TEMP:  73;

JASPER         CLOUDY    72  72 100 CALM      29.80S TC  22
$$

ALZ019-021-028-029-037-038-045>048-180100-
EAST CENTRAL ALABAMA

CITY           SKY/WX    TMP DP  RH WIND       PRES   REMARKS
ANNISTON       CLOUDY    71  67  87 CALM      29.84R TC  22
6HR MIN TEMP:  69; 6HR MAX TEMP:  75; 6HR PCP: TRACE;

ALEXANDER CITY CLOUDY    69  68  99 S3        29.85R TC  20
6HR MIN TEMP:  66; 6HR MAX TEMP:  70; 6HR PCP:  0.05;

AUBURN         CLOUDY    67  67 100 S10       29.88R TC  19
6HR MIN TEMP:  66; 6HR MAX TEMP:  68; 6HR PCP:  0.31;

$$

ALZ051>064-180100-
SOUTHWEST ALABAMA

CITY           SKY/WX    TMP DP  RH WIND       PRES   REMARKS
MOBILE         MOCLDY    77  73  87 SE6       29.80F TC  25
6HR MIN TEMP:  75; 6HR MAX TEMP:  84; 6HR PCP:  0.47;

BROOKLEY FIELD MOCLDY    77  71  82 CALM      29.81R TC  25
6HR MIN TEMP:  74; 6HR MAX TEMP:  84; 6HR PCP:  0.43;

EVERGREEN      CLOUDY    69  67  93 E3        29.84R TC  21
6HR MIN TEMP:  67; 6HR MAX TEMP:  72; 6HR PCP:  1.29;

$$

ALZ049-050-065>069-180100-
SOUTHEAST ALABAMA

CITY           SKY/WX    TMP DP  RH WIND       PRES   REMARKS
DOTHAN         LGT RAIN  68  66  93 E7        29.91F TC  20
6HR MIN TEMP:  68; 6HR MAX TEMP:  77; 6HR PCP:  0.35;

OZARK          CLOUDY    68  66  94 E9        29.84R THUNDER TC  20
6HR MIN TEMP:  68; 6HR MAX TEMP:  78; 6HR PCP:  0.38;

TROY           CLOUDY    68  67  96 E6        29.85F TC  20
6HR MIN TEMP:  66; 6HR MAX TEMP:  69; 6HR PCP:  1.38;

EUFAULA        LGT RAIN  68  66  93 S9        29.86F TC  20
$$